39P/Oterma (2002)

Japanese version
Home page
Updated on August 30, 2001

---------------------------------------------------------------------

* Profile

Designation 39P/2001 P3
Recovery Date August 13, 2001
Magnitude 22.0 mag
Recoverer Y. R. Fernandez (University of Hawaii)

* Orbital Elements

Epoch 2003 Jan. 1.0 TT = JDT 2452640.5
T 2002 Dec. 22.19288 TT                                 Nakano
q   5.4707250            (2000.0)            P               Q
n   0.05057214     Peri.   56.36677     +0.88309845     -0.46891025
a   7.2420547      Node   331.58698     +0.41846143     +0.80270846
e   0.2445894      Incl.    1.94315     +0.21219605     +0.36848652
P  19.49
>From 227 observations 1942-2001, mean residual 1".0.

* Finding Charts

* Magnitudes Graph

        m1 = 11.0 + 5 log d + 10.0 log r

---------------------------------------------------------------------

The orbital elements are calculated by Dr. Syuichi Nakano and printed on M.P.E.C. 2001-Q35.
The charts are made with StellaNavigator Ver.2.0 for Windows (AstroArts / ASCII).
The magnitudes graphs are made with Comet for Windows.

---------------------------------------------------------------------

Copyright(C) Seiichi Yoshida (comet@aerith.net). All rights reserved.